CW1490 Weather Reports


Display with metric or nautical units.
time (UTC)temp
F
wind
direction
speed
MPH
gust
MPH
rain 1hr
in
rain 24hr
in
rain mn
in
humidity
%
barometer
mb
20140418075051 25 230 0.0 0.0 0.00 0.00 0.00 89 1036.9
20140418073550 25 230 0.0 0.0 0.00 0.00 0.00 89 1037.2
20140418072049 25 230 0.0 1.0 0.00 0.00 0.00 88 1037.4
20140418070548 25 230 0.0 0.0 0.00 0.00 0.00 87 1037.4
20140418065045 26 230 0.0 2.0 0.00 0.00 0.00 87 1037.0
20140418063546 26 230 1.0 2.0 0.00 0.00 0.00 87 1037.2
20140418062042 26 230 0.0 0.0 0.00 0.00 0.00 86 1037.3
20140418060540 26 230 0.0 0.0 0.00 0.00 0.00 86 1037.2
20140418055038 27 230 0.0 1.0 0.00 0.00 0.00 85 1037.2
20140418053737 27 230 0.0 1.0 0.00 0.00 0.00 85 1037.3
20140418052035 27 230 0.0 2.0 0.00 0.00 0.00 85 1037.5
20140418050533 27 230 0.0 1.0 0.00 0.00 0.00 84 1037.5
20140418045030 28 230 0.0 0.0 0.00 0.00 0.00 83 1037.8
20140418043528 28 230 0.0 1.0 0.00 0.00 0.00 82 1038.0
20140418042026 29 230 0.0 0.0 0.00 0.00 0.00 81 1038.0
20140418040523 29 230 0.0 1.0 0.00 0.00 0.00 79 1038.0
20140418035021 30 230 0.0 1.0 0.00 0.00 0.00 76 1038.1
20140418033521 31 230 1.0 2.0 0.00 0.00 0.00 73 1038.3
20140418032021 32 230 0.0 1.0 0.00 0.00 0.00 71 1038.5
20140418030520 33 230 0.0 1.0 0.00 0.00 0.00 69 1038.6
20140418025019 34 219 3.0 8.0 0.00 0.00 0.00 68 1038.5
20140418023519 34 201 1.0 7.0 0.00 0.00 0.00 67 1038.7
20140418022019 35 235 3.0 8.0 0.00 0.00 0.00 66 1038.8
20140418020518 35 248 1.0 4.0 0.00 0.00 0.00 62 1038.8
20140418013517 37 215 2.0 9.0 0.00 0.00 0.00 58 1039.2
20140418012016 37 209 3.0 5.0 0.00 0.00 0.00 58 1039.3
20140418010515 38 227 3.0 7.0 0.00 0.00 0.00 56 1039.3
20140418005015 38 249 1.0 9.0 0.00 0.00 0.00 54 1039.2
20140418003514 39 203 2.0 6.0 0.00 0.00 0.00 53 1039.1
20140418002014 40 216 4.0 9.0 0.00 0.00 0.00 49 1038.9
20140418000513 41 179 1.0 9.0 0.00 0.00 0.00 49 1038.7
20140417235013 41 174 3.0 7.0 0.00 0.00 0.00 46 1038.6
20140417233512 42 115 3.0 8.0 0.00 0.00 0.00 46 1038.5
20140417232012 43 110 3.0 10.0 0.00 0.00 0.00 44 1038.3
20140417230511 44 215 2.0 9.0 0.00 0.00 0.00 44 1038.3
20140417225011 45 117 4.0 10.0 0.00 0.00 0.00 40 1038.3
20140417223512 46 202 3.0 11.0 0.00 0.00 0.00 38 1038.2
20140417222209 47 114 4.0 12.0 0.00 0.00 0.00 40 1038.0
20140417220509 48 340 2.0 12.0 0.00 0.00 0.00 39 1038.1
20140417215009 48 122 4.0 10.0 0.00 0.00 0.00 37 1037.9
20140417213508 49 174 6.0 12.0 0.00 0.00 0.00 37 1038.0
20140417212010 49 134 6.0 11.0 0.00 0.00 0.00 35 1038.0
20140417210507 50 163 3.0 9.0 0.00 0.00 0.00 36 1038.1
20140417205009 50 168 1.0 7.0 0.00 0.00 0.00 39 1038.2
20140417203506 50 345 3.0 8.0 0.00 0.00 0.00 34 1038.3
20140417202004 50 184 6.0 11.0 0.00 0.00 0.00 34 1038.3
20140417200504 50 48 4.0 9.0 0.00 0.00 0.00 34 1038.4
20140417195004 50 91 3.0 10.0 0.00 0.00 0.00 36 1038.5
20140417193503 50 132 3.0 12.0 0.00 0.00 0.00 37 1038.8
20140417192001 49 246 3.0 12.0 0.00 0.00 0.00 35 1039.0
20140417190459 49 105 6.0 10.0 0.00 0.00 0.00 34 1039.0
20140417184958 49 104 2.0 10.0 0.00 0.00 0.00 36 1039.3
20140417183455 47 100 4.0 8.0 0.00 0.00 0.00 34 1039.5
20140417181953 47 143 4.0 10.0 0.00 0.00 0.00 35 1039.8
20140417180453 47 226 5.0 8.0 0.00 0.00 0.00 36 1040.0
20140417174950 47 177 6.0 11.0 0.00 0.00 0.00 41 1040.2
20140417173447 46 85 5.0 11.0 0.00 0.00 0.00 36 1040.4
20140417171944 45 55 9.0 13.0 0.00 0.00 0.00 41 1040.5
20140417170444 44 60 3.0 15.0 0.00 0.00 0.00 38 1040.7
20140417164942 44 211 4.0 11.0 0.00 0.04 0.00 39 1040.9
20140417163440 43 82 5.0 11.0 0.00 0.04 0.00 40 1041.2
20140417161937 43 29 4.0 8.0 0.00 0.04 0.00 41 1041.5
20140417160434 42 54 3.0 6.0 0.00 0.04 0.00 40 1041.6
20140417154931 42 66 3.0 8.0 0.00 0.06 0.00 39 1041.9
20140417153427 41 120 3.0 9.0 0.00 0.06 0.00 40 1042.0
20140417151923 40 345 1.0 8.0 0.00 0.06 0.00 44 1042.2
20140417150520 40 26 1.0 6.0 0.00 0.06 0.00 43 1042.4
20140417144918 39 29 3.0 10.0 0.00 0.11 0.00 44 1042.6
20140417143414 38 105 1.0 10.0 0.00 0.11 0.00 49 1042.7
20140417141911 37 46 2.0 7.0 0.00 0.11 0.00 50 1042.8
20140417140408 36 22 1.0 6.0 0.00 0.11 0.00 51 1043.0
20140417134905 35 17 2.0 5.0 0.00 0.12 0.00 54 1043.1
20140417133402 34 3 2.0 6.0 0.00 0.12 0.00 61 1043.0
20140417131857 33 173 1.0 8.0 0.00 0.12 0.00 59 1043.2
20140417130354 32 294 1.0 5.0 0.00 0.12 0.00 61 1043.1
20140417124851 31 35 2.0 9.0 0.00 0.12 0.00 67 1043.0
20140417123347 30 44 4.0 6.0 0.00 0.12 0.00 71 1043.0
20140417121843 29 28 3.0 6.0 0.00 0.12 0.00 72 1042.9
20140417120339 28 39 4.0 6.0 0.00 0.12 0.00 73 1042.8
20140417114837 27 26 2.0 5.0 0.00 0.12 0.00 76 1042.8
20140417113334 26 59 2.0 4.0 0.00 0.12 0.00 82 1042.8
20140417111830 24 20 1.0 4.0 0.00 0.12 0.00 86 1042.5
20140417110327 23 44 2.0 4.0 0.00 0.12 0.00 87 1042.2
20140417104824 23 30 1.0 3.0 0.00 0.12 0.00 87 1041.8
20140417103319 22 26 0.0 2.0 0.00 0.12 0.00 87 1041.6
20140417101815 22 27 2.0 4.0 0.00 0.12 0.00 86 1041.2
20140417100312 22 15 2.0 4.0 0.00 0.12 0.00 86 1040.9
20140417094808 22 14 1.0 3.0 0.00 0.12 0.00 85 1040.8
20140417093306 23 12 0.0 2.0 0.00 0.12 0.00 84 1040.5
20140417091805 23 24 0.0 3.0 0.00 0.12 0.00 83 1040.4
20140417090303 23 24 1.0 2.0 0.00 0.12 0.00 85 1040.4
20140417084800 23 24 0.0 0.0 0.00 0.12 0.00 86 1040.2
20140417083259 24 24 0.0 2.0 0.00 0.12 0.00 85 1040.0
20140417081757 24 24 0.0 1.0 0.00 0.12 0.00 84 1039.9